| time (UTC) | temp F | wind direction | speed knots | gust knots | rain 1hr in | rain 24hr in | rain mn in | humidity % | barometer mb |
| 20260906134940 | 89 | 91 | 4.3 | 7.0 | 0.00 | 0.00 | 0.00 | 57 | 1019.6 |
| 20260906134440 | 89 | 125 | 4.3 | 7.0 | 0.00 | 0.00 | 0.00 | 57 | 1019.6 |
| 20260906133940 | 89 | 104 | 4.3 | 7.0 | 0.00 | 0.00 | 0.00 | 57 | 1019.7 |
| 20260906133440 | 89 | 117 | 5.2 | 8.7 | 0.00 | 0.00 | 0.00 | 58 | 1019.7 |
| 20260906132940 | 89 | 126 | 6.1 | 10.4 | 0.00 | 0.00 | 0.00 | 56 | 1019.8 |
| 20260906131940 | 89 | 79 | 5.2 | 10.4 | 0.00 | 0.00 | 0.00 | 57 | 1019.8 |
| 20260906131440 | 89 | 107 | 7.0 | 11.3 | 0.00 | 0.00 | 0.00 | 57 | 1019.8 |
| 20260906130941 | 89 | 64 | 5.2 | 10.4 | 0.00 | 0.00 | 0.00 | 58 | 1019.9 |
| 20260906125940 | 89 | 74 | 5.2 | 10.4 | 0.00 | 0.00 | 0.00 | 58 | 1020.0 |
| 20260906125441 | 89 | 75 | 2.6 | 6.1 | 0.00 | 0.00 | 0.00 | 58 | 1020.0 |
| 20260906124940 | 89 | 116 | 4.3 | 10.4 | 0.00 | 0.00 | 0.00 | 57 | 1020.1 |
| 20260906124440 | 89 | 85 | 5.2 | 10.4 | 0.00 | 0.00 | 0.00 | 56 | 1020.1 |
| 20260906123941 | 89 | 108 | 4.3 | 8.7 | 0.00 | 0.00 | 0.00 | 57 | 1020.1 |
| 20260906123440 | 89 | 114 | 5.2 | 10.4 | 0.00 | 0.00 | 0.00 | 60 | 1020.1 |
| 20260906122440 | 89 | 87 | 6.1 | 8.7 | 0.00 | 0.00 | 0.00 | 56 | 1020.2 |
| 20260906121940 | 89 | 91 | 5.2 | 8.7 | 0.00 | 0.00 | 0.00 | 59 | 1020.2 |
| 20260906121440 | 88 | 80 | 6.1 | 10.4 | 0.00 | 0.00 | 0.00 | 59 | 1020.2 |
| 20260906120939 | 88 | 130 | 6.1 | 10.4 | 0.00 | 0.00 | 0.00 | 59 | 1020.2 |
| 20260906120440 | 88 | 115 | 4.3 | 8.7 | 0.00 | 0.00 | 0.00 | 60 | 1020.3 |
| 20260906115940 | 88 | 92 | 7.0 | 10.4 | 0.00 | 0.00 | 0.00 | 59 | 1020.2 |
| 20260906115440 | 88 | 98 | 6.1 | 8.7 | 0.00 | 0.00 | 0.00 | 59 | 1020.3 |
| 20260906114941 | 88 | 80 | 3.5 | 8.7 | 0.00 | 0.00 | 0.00 | 60 | 1020.3 |
| 20260906114440 | 88 | 142 | 4.3 | 7.0 | 0.00 | 0.00 | 0.00 | 59 | 1020.3 |
| 20260906113440 | 87 | 138 | 6.1 | 8.7 | 0.00 | 0.00 | 0.00 | 59 | 1020.4 |
| 20260906112439 | 87 | 103 | 5.2 | 11.3 | 0.00 | 0.00 | 0.00 | 59 | 1020.4 |
| 20260906111940 | 87 | 101 | 5.2 | 11.3 | 0.00 | 0.00 | 0.00 | 59 | 1020.3 |
| 20260906111441 | 87 | 71 | 5.2 | 10.4 | 0.00 | 0.00 | 0.00 | 61 | 1020.4 |
| 20260906110941 | 87 | 100 | 2.6 | 8.7 | 0.00 | 0.00 | 0.00 | 59 | 1020.4 |
| 20260906105940 | 87 | 84 | 6.1 | 12.2 | 0.00 | 0.00 | 0.00 | 61 | 1020.5 |
| 20260906105439 | 86 | 60 | 6.1 | 11.3 | 0.00 | 0.00 | 0.00 | 62 | 1020.5 |
| 20260906104940 | 86 | 100 | 7.8 | 11.3 | 0.00 | 0.00 | 0.00 | 62 | 1020.5 |
| 20260906104439 | 86 | 100 | 7.8 | 11.3 | 0.00 | 0.00 | 0.00 | 61 | 1020.5 |
| 20260906103940 | 86 | 87 | 6.1 | 12.2 | 0.00 | 0.00 | 0.00 | 61 | 1020.5 |
| 20260906103440 | 86 | 112 | 8.7 | 12.2 | 0.00 | 0.00 | 0.00 | 61 | 1020.5 |
| 20260906102940 | 85 | 116 | 5.2 | 8.7 | 0.00 | 0.00 | 0.00 | 61 | 1020.6 |
| 20260906101939 | 85 | 82 | 7.8 | 11.3 | 0.00 | 0.00 | 0.00 | 62 | 1020.6 |
| 20260906101440 | 86 | 131 | 7.0 | 10.4 | 0.00 | 0.00 | 0.00 | 63 | 1020.7 |
| 20260906100939 | 85 | 103 | 7.0 | 11.3 | 0.00 | 0.00 | 0.00 | 63 | 1020.8 |
| 20260906100439 | 85 | 108 | 6.1 | 13.0 | 0.00 | 0.00 | 0.00 | 62 | 1020.8 |
| 20260906095939 | 85 | 105 | 6.1 | 10.4 | 0.00 | 0.00 | 0.00 | 64 | 1020.8 |
| 20260906094940 | 85 | 90 | 7.8 | 11.3 | 0.00 | 0.00 | 0.00 | 61 | 1020.8 |
| 20260906094440 | 85 | 78 | 8.7 | 13.9 | 0.00 | 0.00 | 0.00 | 61 | 1020.9 |
| 20260906093940 | 85 | 89 | 7.0 | 12.2 | 0.00 | 0.00 | 0.00 | 58 | 1020.9 |
| 20260906092439 | 85 | 71 | 10.4 | 15.6 | 0.00 | 0.00 | 0.00 | 55 | 1020.9 |
| 20260906091940 | 85 | 73 | 8.7 | 14.8 | 0.00 | 0.00 | 0.00 | 57 | 1021.0 |
| 20260906090940 | 84 | 75 | 6.1 | 15.6 | 0.00 | 0.00 | 0.00 | 57 | 1021.0 |
| 20260906090439 | 84 | 105 | 9.6 | 19.1 | 0.00 | 0.00 | 0.00 | 56 | 1021.0 |
| 20260906085940 | 84 | 77 | 11.3 | 15.6 | 0.00 | 0.00 | 0.00 | 55 | 1021.0 |
| 20260906085439 | 84 | 79 | 5.2 | 8.7 | 0.00 | 0.00 | 0.00 | 60 | 1021.0 |
| 20260906084940 | 84 | 86 | 7.8 | 11.3 | 0.00 | 0.00 | 0.00 | 60 | 1021.0 |
| 20260906084440 | 84 | 62 | 7.8 | 11.3 | 0.00 | 0.00 | 0.00 | 59 | 1021.0 |
| 20260906083940 | 83 | 97 | 7.8 | 13.0 | 0.00 | 0.00 | 0.00 | 60 | 1021.0 |
| 20260906083439 | 83 | 99 | 9.6 | 14.8 | 0.00 | 0.00 | 0.00 | 61 | 1020.9 |
| 20260906082439 | 83 | 93 | 6.1 | 11.3 | 0.00 | 0.00 | 0.00 | 62 | 1020.8 |
| 20260906081939 | 83 | 88 | 6.1 | 12.2 | 0.00 | 0.00 | 0.00 | 62 | 1020.8 |
| 20260906081440 | 82 | 91 | 8.7 | 13.9 | 0.00 | 0.00 | 0.00 | 62 | 1020.7 |
| 20260906080939 | 82 | 99 | 5.2 | 8.7 | 0.00 | 0.00 | 0.00 | 65 | 1020.7 |
| 20260906080439 | 82 | 91 | 5.2 | 8.7 | 0.00 | 0.00 | 0.00 | 65 | 1020.6 |
| 20260906075940 | 81 | 113 | 7.0 | 11.3 | 0.00 | 0.00 | 0.00 | 66 | 1020.6 |
| 20260906075440 | 81 | 98 | 5.2 | 11.3 | 0.00 | 0.00 | 0.00 | 67 | 1020.7 |
| 20260906074939 | 80 | 103 | 7.8 | 11.3 | 0.00 | 0.00 | 0.00 | 67 | 1020.7 |
| 20260906073940 | 80 | 116 | 5.2 | 7.8 | 0.00 | 0.00 | 0.00 | 72 | 1020.7 |
| 20260906073440 | 79 | 115 | 3.5 | 6.1 | 0.00 | 0.00 | 0.00 | 72 | 1020.7 |
| 20260906072939 | 79 | 115 | 5.2 | 7.8 | 0.00 | 0.00 | 0.00 | 72 | 1020.6 |
| 20260906072439 | 79 | 115 | 3.5 | 6.1 | 0.00 | 0.00 | 0.00 | 72 | 1020.6 |
| 20260906071939 | 79 | 98 | 3.5 | 6.1 | 0.00 | 0.00 | 0.00 | 74 | 1020.6 |
| 20260906070940 | 78 | 106 | 2.6 | 7.0 | 0.00 | 0.00 | 0.00 | 74 | 1020.5 |
| 20260906070440 | 78 | 134 | 1.7 | 2.6 | 0.00 | 0.00 | 0.00 | 75 | 1020.5 |
| 20260906065939 | 77 | 91 | 2.6 | 4.3 | 0.00 | 0.00 | 0.00 | 75 | 1020.5 |
| 20260906065438 | 77 | 96 | 3.5 | 6.1 | 0.00 | 0.00 | 0.00 | 75 | 1020.4 |
| 20260906064941 | 77 | 62 | 1.7 | 4.3 | 0.00 | 0.00 | 0.00 | 78 | 1020.3 |
| 20260906064439 | 76 | 100 | 2.6 | 4.3 | 0.00 | 0.00 | 0.00 | 77 | 1020.3 |
| 20260906063940 | 76 | 109 | 3.5 | 6.1 | 0.00 | 0.00 | 0.00 | 77 | 1020.2 |
| 20260906063439 | 76 | 136 | 2.6 | 6.1 | 0.00 | 0.00 | 0.00 | 77 | 1020.2 |
| 20260906062438 | 76 | 102 | 3.5 | 7.0 | 0.00 | 0.00 | 0.00 | 79 | 1020.1 |
| 20260906061939 | 75 | 109 | 2.6 | 4.3 | 0.00 | 0.00 | 0.00 | 80 | 1020.1 |
| 20260906061439 | 75 | 110 | 1.7 | 4.3 | 0.00 | 0.00 | 0.00 | 80 | 1020.0 |
| 20260906060939 | 75 | 101 | 1.7 | 4.3 | 0.00 | 0.00 | 0.00 | 80 | 1020.0 |
| 20260906060439 | 74 | 96 | 0.9 | 2.6 | 0.00 | 0.00 | 0.00 | 80 | 1019.9 |
| 20260906055940 | 74 | 111 | 0.0 | 1.7 | 0.00 | 0.00 | 0.00 | 81 | 1019.8 |
| 20260906055440 | 74 | 123 | 0.0 | 0.9 | 0.00 | 0.00 | 0.00 | 81 | 1019.8 |
| 20260906054939 | 73 | 121 | 1.7 | 4.3 | 0.00 | 0.00 | 0.00 | 80 | 1019.8 |
| 20260906054439 | 73 | 112 | 2.6 | 4.3 | 0.00 | 0.00 | 0.00 | 81 | 1019.7 |
| 20260906053939 | 73 | 104 | 1.7 | 4.3 | 0.00 | 0.00 | 0.00 | 81 | 1019.6 |
| 20260906053439 | 73 | 85 | 1.7 | 2.6 | 0.00 | 0.00 | 0.00 | 83 | 1019.6 |
| 20260906052938 | 73 | 84 | 0.9 | 2.6 | 0.00 | 0.00 | 0.00 | 83 | 1019.5 |
| 20260906052439 | 72 | 84 | 1.7 | 2.6 | 0.00 | 0.00 | 0.00 | 84 | 1019.5 |
| 20260906051440 | 71 | 86 | 1.7 | 4.3 | 0.00 | 0.00 | 0.00 | 86 | 1019.3 |
| 20260906050941 | 72 | 89 | 1.7 | 2.6 | 0.00 | 0.00 | 0.00 | 86 | 1019.2 |
| 20260906050439 | 72 | 101 | 1.7 | 2.6 | 0.00 | 0.00 | 0.00 | 86 | 1019.3 |
| 20260906045939 | 72 | 108 | 0.9 | 1.7 | 0.00 | 0.00 | 0.00 | 87 | 1019.2 |
| 20260906045439 | 72 | 111 | 0.9 | 2.6 | 0.00 | 0.00 | 0.00 | 87 | 1019.1 |
| 20260906044439 | 72 | 72 | 2.6 | 2.6 | 0.00 | 0.00 | 0.00 | 87 | 1019.0 |
| 20260906043939 | 72 | 81 | 1.7 | 2.6 | 0.00 | 0.00 | 0.00 | 88 | 1018.9 |
| 20260906043438 | 72 | 71 | 1.7 | 2.6 | 0.00 | 0.00 | 0.00 | 88 | 1019.0 |
| 20260906042939 | 72 | 79 | 1.7 | 2.6 | 0.00 | 0.00 | 0.00 | 88 | 1018.9 |
| 20260906042440 | 72 | 86 | 0.0 | 0.0 | 0.00 | 0.00 | 0.00 | 88 | 1018.9 |
| 20260906041938 | 73 | 86 | 0.0 | 0.0 | 0.00 | 0.00 | 0.00 | 87 | 1018.9 |
| 20260906041439 | 73 | 86 | 0.0 | 0.0 | 0.00 | 0.00 | 0.00 | 87 | 1018.9 |
| 20260906040940 | 73 | 86 | 0.0 | 0.9 | 0.00 | 0.00 | 0.00 | 87 | 1018.8 |
| 20260906040438 | 73 | 86 | 1.7 | 2.6 | 0.00 | 0.00 | 0.00 | 87 | 1018.7 |
| 20260906035439 | 73 | 78 | 2.6 | 5.2 | 0.00 | 0.00 | 0.00 | 87 | 1018.6 |
| 20260906034439 | 73 | 74 | 2.6 | 5.2 | 0.00 | 0.00 | 0.00 | 87 | 1018.5 |
| 20260906033938 | 73 | 98 | 1.7 | 4.3 | 0.00 | 0.00 | 0.00 | 87 | 1018.5 |
| 20260906033438 | 73 | 85 | 2.6 | 5.2 | 0.00 | 0.00 | 0.00 | 87 | 1018.4 |
| 20260906032939 | 74 | 88 | 2.6 | 5.2 | 0.00 | 0.00 | 0.00 | 87 | 1018.4 |
| 20260906031939 | 74 | 93 | 1.7 | 4.3 | 0.00 | 0.00 | 0.00 | 86 | 1018.3 |
| 20260906031438 | 74 | 84 | 1.7 | 4.3 | 0.00 | 0.00 | 0.00 | 86 | 1018.3 |
| 20260906030940 | 74 | 79 | 3.5 | 6.1 | 0.00 | 0.00 | 0.00 | 86 | 1018.3 |
| 20260906030439 | 74 | 90 | 2.6 | 5.2 | 0.00 | 0.00 | 0.00 | 86 | 1018.3 |
| 20260906025439 | 74 | 67 | 4.3 | 7.0 | 0.00 | 0.00 | 0.00 | 85 | 1018.3 |
| 20260906024439 | 75 | 62 | 5.2 | 7.8 | 0.00 | 0.00 | 0.00 | 85 | 1018.3 |
| 20260906023438 | 75 | 65 | 4.3 | 7.8 | 0.00 | 0.00 | 0.00 | 84 | 1018.3 |
| 20260906022438 | 75 | 77 | 6.1 | 7.8 | 0.00 | 0.00 | 0.00 | 84 | 1018.3 |
| 20260906021938 | 75 | 76 | 5.2 | 7.8 | 0.00 | 0.00 | 0.00 | 83 | 1018.2 |
| 20260906021438 | 76 | 81 | 6.1 | 8.7 | 0.00 | 0.00 | 0.00 | 83 | 1018.1 |
| 20260906020938 | 76 | 69 | 5.2 | 11.3 | 0.00 | 0.00 | 0.00 | 83 | 1018.1 |
| 20260906020438 | 76 | 70 | 6.1 | 12.2 | 0.00 | 0.00 | 0.00 | 83 | 1018.1 |
| 20260906014939 | 76 | 74 | 6.1 | 10.4 | 0.00 | 0.00 | 0.00 | 83 | 1018.1 |
| 20260906014438 | 76 | 71 | 6.1 | 10.4 | 0.00 | 0.00 | 0.00 | 84 | 1018.0 |
| 20260906013938 | 76 | 69 | 7.0 | 10.4 | 0.00 | 0.00 | 0.00 | 85 | 1018.0 |
| 20260906012940 | 75 | 68 | 6.1 | 8.7 | 0.00 | 0.00 | 0.00 | 87 | 1018.0 |
| 20260906012439 | 75 | 60 | 5.2 | 7.0 | 0.00 | 0.00 | 0.00 | 88 | 1017.9 |
| 20260906011938 | 75 | 61 | 3.5 | 7.0 | 0.00 | 0.00 | 0.00 | 88 | 1017.9 |
| 20260906010938 | 75 | 66 | 4.3 | 6.1 | 0.00 | 0.00 | 0.00 | 88 | 1017.9 |
| 20260906010438 | 75 | 65 | 2.6 | 4.3 | 0.00 | 0.00 | 0.00 | 88 | 1017.8 |
| 20260906005939 | 75 | 63 | 2.6 | 5.2 | 0.00 | 0.00 | 0.00 | 88 | 1017.8 |
| 20260906004938 | 75 | 57 | 3.5 | 6.1 | 0.00 | 0.00 | 0.00 | 88 | 1017.7 |
| 20260906004438 | 75 | 61 | 2.6 | 2.6 | 0.00 | 0.00 | 0.00 | 88 | 1017.7 |
| 20260906003937 | 75 | 59 | 2.6 | 4.3 | 0.00 | 0.00 | 0.00 | 88 | 1017.7 |
| 20260906003438 | 75 | 61 | 2.6 | 4.3 | 0.00 | 0.00 | 0.00 | 88 | 1017.7 |
| 20260906002938 | 75 | 73 | 2.6 | 6.1 | 0.00 | 0.00 | 0.00 | 88 | 1017.7 |
| 20260906002439 | 75 | 73 | 2.6 | 6.1 | 0.00 | 0.00 | 0.00 | 88 | 1017.7 |
| 20260906001438 | 75 | 64 | 3.5 | 6.1 | 0.00 | 0.00 | 0.00 | 88 | 1017.7 |
| 20260906000938 | 75 | 67 | 3.5 | 6.1 | 0.00 | 0.00 | 0.00 | 88 | 1017.7 |
| 20260906000440 | 75 | 64 | 3.5 | 7.0 | 0.00 | 0.00 | 0.00 | 88 | 1017.7 |
| 20260905235937 | 75 | 65 | 2.6 | 6.1 | 0.00 | 0.00 | 0.00 | 88 | 1017.7 |
| 20260905235439 | 75 | 68 | 2.6 | 4.3 | 0.00 | 0.00 | 0.00 | 88 | 1017.7 |
| 20260905234939 | 75 | 67 | 1.7 | 4.3 | 0.00 | 0.00 | 0.00 | 88 | 1017.7 |
| 20260905233938 | 75 | 65 | 4.3 | 6.1 | 0.00 | 0.00 | 0.00 | 88 | 1017.7 |
| 20260905233438 | 75 | 64 | 4.3 | 6.1 | 0.00 | 0.00 | 0.00 | 88 | 1017.7 |
| 20260905232937 | 75 | 64 | 2.6 | 6.1 | 0.00 | 0.00 | 0.00 | 88 | 1017.7 |
| 20260905232437 | 75 | 73 | 1.7 | 2.6 | 0.00 | 0.00 | 0.00 | 87 | 1017.7 |
| 20260905231938 | 75 | 78 | 1.7 | 2.6 | 0.00 | 0.00 | 0.00 | 87 | 1017.6 |
| 20260905231438 | 75 | 80 | 2.6 | 5.2 | 0.00 | 0.00 | 0.00 | 87 | 1017.6 |
| 20260905230938 | 75 | 61 | 3.5 | 7.0 | 0.00 | 0.00 | 0.00 | 87 | 1017.6 |
| 20260905230438 | 75 | 67 | 4.3 | 7.0 | 0.00 | 0.00 | 0.00 | 88 | 1017.5 |
| 20260905225937 | 75 | 66 | 4.3 | 7.8 | 0.00 | 0.00 | 0.00 | 88 | 1017.5 |
| 20260905225438 | 75 | 64 | 4.3 | 7.0 | 0.00 | 0.00 | 0.00 | 88 | 1017.4 |
| 20260905224937 | 75 | 60 | 3.5 | 6.1 | 0.00 | 0.00 | 0.00 | 88 | 1017.4 |
| 20260905224437 | 75 | 67 | 2.6 | 5.2 | 0.00 | 0.00 | 0.00 | 88 | 1017.5 |
| 20260905223937 | 75 | 65 | 2.6 | 4.3 | 0.00 | 0.00 | 0.00 | 88 | 1017.4 |
| 20260905222938 | 75 | 63 | 3.5 | 6.1 | 0.00 | 0.00 | 0.00 | 88 | 1017.3 |
| 20260905222437 | 75 | 68 | 2.6 | 7.0 | 0.00 | 0.00 | 0.00 | 87 | 1017.2 |
| 20260905221938 | 76 | 66 | 3.5 | 7.0 | 0.00 | 0.00 | 0.00 | 86 | 1017.2 |
| 20260905221437 | 76 | 64 | 4.3 | 7.0 | 0.00 | 0.00 | 0.00 | 86 | 1017.1 |
| 20260905220937 | 76 | 65 | 3.5 | 6.1 | 0.00 | 0.00 | 0.00 | 85 | 1017.1 |
| 20260905220438 | 76 | 60 | 4.3 | 6.1 | 0.00 | 0.00 | 0.00 | 84 | 1017.1 |
| 20260905215938 | 76 | 64 | 2.6 | 6.1 | 0.00 | 0.00 | 0.00 | 84 | 1017.0 |
| 20260905215437 | 76 | 60 | 4.3 | 7.0 | 0.00 | 0.00 | 0.00 | 83 | 1017.0 |
| 20260905214937 | 76 | 66 | 2.6 | 6.1 | 0.00 | 0.00 | 0.00 | 82 | 1016.9 |
| 20260905214438 | 76 | 64 | 4.3 | 6.1 | 0.00 | 0.00 | 0.00 | 81 | 1016.9 |
| 20260905213937 | 77 | 67 | 3.5 | 6.1 | 0.00 | 0.00 | 0.00 | 80 | 1016.8 |
| 20260905213438 | 77 | 70 | 2.6 | 4.3 | 0.00 | 0.00 | 0.00 | 80 | 1016.8 |
| 20260905212937 | 77 | 67 | 2.6 | 4.3 | 0.00 | 0.00 | 0.00 | 79 | 1016.7 |
| 20260905212438 | 77 | 65 | 2.6 | 6.1 | 0.00 | 0.00 | 0.00 | 78 | 1016.7 |
| 20260905211937 | 77 | 65 | 4.3 | 7.0 | 0.00 | 0.00 | 0.00 | 77 | 1016.6 |
| 20260905211439 | 78 | 74 | 5.2 | 7.0 | 0.00 | 0.00 | 0.00 | 76 | 1016.5 |
| 20260905210938 | 78 | 66 | 4.3 | 6.1 | 0.00 | 0.00 | 0.00 | 75 | 1016.5 |
| 20260905205444 | 78 | 63 | 4.3 | 7.0 | 0.00 | 0.00 | 0.00 | 74 | 1016.2 |
| 20260905203953 | 78 | 66 | 5.2 | 8.7 | 0.00 | 0.00 | 0.00 | 77 | 1016.2 |
| 20260905202944 | 78 | 93 | 2.6 | 6.1 | 0.00 | 0.00 | 0.00 | 76 | 1015.9 |
| 20260905202437 | 78 | 87 | 2.6 | 6.1 | 0.00 | 0.00 | 0.00 | 76 | 1015.9 |
| 20260905201937 | 78 | 83 | 2.6 | 4.3 | 0.00 | 0.00 | 0.00 | 75 | 1015.9 |
| 20260905200940 | 78 | 80 | 2.6 | 5.2 | 0.00 | 0.00 | 0.00 | 75 | 1015.8 |
| 20260905200437 | 78 | 83 | 1.7 | 4.3 | 0.00 | 0.00 | 0.00 | 75 | 1015.7 |
| 20260905195937 | 78 | 82 | 2.6 | 4.3 | 0.00 | 0.00 | 0.00 | 75 | 1015.7 |
| 20260905195437 | 79 | 82 | 1.7 | 2.6 | 0.00 | 0.00 | 0.00 | 74 | 1015.7 |
| 20260905194437 | 79 | 81 | 2.6 | 4.3 | 0.00 | 0.00 | 0.00 | 74 | 1015.6 |
| 20260905193937 | 79 | 82 | 2.6 | 4.3 | 0.00 | 0.00 | 0.00 | 74 | 1015.5 |
| 20260905193437 | 79 | 79 | 2.6 | 4.3 | 0.00 | 0.00 | 0.00 | 75 | 1015.5 |
| 20260905192937 | 79 | 74 | 2.6 | 2.6 | 0.00 | 0.00 | 0.00 | 76 | 1015.4 |
| 20260905192437 | 79 | 74 | 1.7 | 2.6 | 0.00 | 0.00 | 0.00 | 75 | 1015.3 |
| 20260905191937 | 79 | 74 | 0.9 | 1.7 | 0.00 | 0.00 | 0.00 | 74 | 1015.3 |
| 20260905191437 | 79 | 74 | 1.7 | 2.6 | 0.00 | 0.00 | 0.00 | 73 | 1015.2 |
| 20260905190937 | 80 | 74 | 1.7 | 2.6 | 0.00 | 0.00 | 0.00 | 72 | 1015.1 |
| 20260905185939 | 80 | 74 | 1.7 | 2.6 | 0.00 | 0.00 | 0.00 | 74 | 1015.0 |
| 20260905185436 | 80 | 74 | 0.9 | 1.7 | 0.00 | 0.00 | 0.00 | 73 | 1014.9 |
| 20260905184437 | 81 | 74 | 1.7 | 2.6 | 0.00 | 0.00 | 0.00 | 73 | 1014.9 |
| 20260905183438 | 80 | 74 | 1.7 | 2.6 | 0.00 | 0.00 | 0.00 | 74 | 1014.7 |
| 20260905182936 | 80 | 68 | 1.7 | 2.6 | 0.00 | 0.00 | 0.00 | 73 | 1014.7 |
| 20260905182437 | 81 | 34 | 0.9 | 2.6 | 0.00 | 0.00 | 0.00 | 73 | 1014.5 |
| 20260905181937 | 81 | 34 | 1.7 | 2.6 | 0.00 | 0.00 | 0.00 | 72 | 1014.5 |
| 20260905181437 | 81 | 34 | 1.7 | 2.6 | 0.00 | 0.00 | 0.00 | 71 | 1014.4 |
| 20260905180954 | 82 | 34 | 0.9 | 1.7 | 0.00 | 0.00 | 0.00 | 70 | 1014.4 |
| 20260905180437 | 82 | 34 | 0.9 | 0.9 | 0.00 | 0.00 | 0.00 | 70 | 1014.3 |
| 20260905175436 | 83 | 34 | 0.0 | 0.0 | 0.00 | 0.00 | 0.00 | 69 | 1014.2 |
| 20260905174936 | 83 | 34 | 0.0 | 0.9 | 0.00 | 0.00 | 0.00 | 68 | 1014.2 |
| 20260905174440 | 83 | 34 | 0.0 | 1.7 | 0.00 | 0.00 | 0.00 | 67 | 1014.2 |
| 20260905173940 | 84 | 34 | 0.9 | 1.7 | 0.00 | 0.00 | 0.00 | 68 | 1014.1 |
| 20260905173436 | 84 | 34 | 0.0 | 0.0 | 0.00 | 0.00 | 0.00 | 67 | 1014.0 |
| 20260905172937 | 85 | 33 | 0.0 | 0.0 | 0.00 | 0.00 | 0.00 | 67 | 1014.0 |
| 20260905171937 | 86 | 33 | 0.0 | 0.9 | 0.00 | 0.00 | 0.00 | 64 | 1013.9 |
| 20260905171438 | 87 | 33 | 0.0 | 0.9 | 0.00 | 0.00 | 0.00 | 64 | 1013.9 |
| 20260905170939 | 87 | 302 | 0.9 | 1.7 | 0.00 | 0.00 | 0.00 | 62 | 1013.9 |
| 20260905165936 | 90 | 302 | 0.0 | 1.7 | 0.00 | 0.00 | 0.00 | 54 | 1013.9 |
| 20260905164937 | 91 | 286 | 1.7 | 2.6 | 0.00 | 0.00 | 0.00 | 52 | 1013.8 |
| 20260905164452 | 91 | 283 | 3.5 | 5.2 | 0.00 | 0.00 | 0.00 | 51 | 1013.8 |
| 20260905163937 | 91 | 298 | 1.7 | 2.6 | 0.00 | 0.00 | 0.00 | 51 | 1013.8 |
| 20260905162937 | 92 | 293 | 1.7 | 4.3 | 0.00 | 0.00 | 0.00 | 50 | 1013.8 |
| 20260905162437 | 92 | 292 | 2.6 | 5.2 | 0.00 | 0.00 | 0.00 | 50 | 1013.7 |
| 20260905161936 | 92 | 310 | 2.6 | 5.2 | 0.00 | 0.00 | 0.00 | 50 | 1013.7 |
| 20260905160437 | 92 | 307 | 2.6 | 6.1 | 0.00 | 0.00 | 0.00 | 50 | 1013.6 |
| 20260905155436 | 92 | 304 | 5.2 | 7.8 | 0.00 | 0.00 | 0.00 | 49 | 1013.6 |
| 20260905154436 | 93 | 304 | 3.5 | 6.1 | 0.00 | 0.00 | 0.00 | 48 | 1013.6 |
| 20260905153436 | 93 | 278 | 4.3 | 7.0 | 0.00 | 0.00 | 0.00 | 49 | 1013.6 |
| 20260905152937 | 93 | 276 | 1.7 | 5.2 | 0.00 | 0.00 | 0.00 | 51 | 1013.6 |
| 20260905152437 | 93 | 253 | 4.3 | 6.1 | 0.00 | 0.00 | 0.00 | 50 | 1013.6 |
| 20260905151436 | 93 | 275 | 6.1 | 8.7 | 0.00 | 0.00 | 0.00 | 49 | 1013.6 |
| 20260905150937 | 93 | 257 | 3.5 | 10.4 | 0.00 | 0.00 | 0.00 | 49 | 1013.6 |
| 20260905145936 | 93 | 297 | 4.3 | 7.0 | 0.00 | 0.00 | 0.00 | 49 | 1013.7 |
| 20260905145454 | 93 | 267 | 5.2 | 8.7 | 0.00 | 0.00 | 0.00 | 50 | 1013.6 |
| 20260905144936 | 93 | 271 | 4.3 | 7.8 | 0.00 | 0.00 | 0.00 | 49 | 1013.6 |
| 20260905144439 | 93 | 292 | 4.3 | 10.4 | 0.00 | 0.00 | 0.00 | 51 | 1013.6 |
| 20260905143944 | 93 | 298 | 2.6 | 6.1 | 0.00 | 0.00 | 0.00 | 51 | 1013.7 |
| 20260905143439 | 92 | 252 | 5.2 | 7.8 | 0.00 | 0.00 | 0.00 | 51 | 1013.7 |
| 20260905142936 | 93 | 255 | 7.0 | 10.4 | 0.00 | 0.00 | 0.00 | 51 | 1013.7 |
| 20260905142436 | 93 | 284 | 5.2 | 7.8 | 0.00 | 0.00 | 0.00 | 49 | 1013.8 |
| 20260905141936 | 92 | 296 | 4.3 | 8.7 | 0.00 | 0.00 | 0.00 | 51 | 1013.9 |
| 20260905141436 | 92 | 286 | 7.0 | 10.4 | 0.00 | 0.00 | 0.00 | 50 | 1014.0 |
| 20260905140936 | 93 | 304 | 6.1 | 8.7 | 0.00 | 0.00 | 0.00 | 51 | 1013.9 |
| 20260905140448 | 92 | 241 | 2.6 | 5.2 | 0.00 | 0.00 | 0.00 | 52 | 1014.0 |
| 20260905135436 | 92 | 273 | 5.2 | 8.7 | 0.00 | 0.00 | 0.00 | 52 | 1014.1 |